• In Netherlands
  • List of Countries
  • For 7 days
  • Water Temperature
  • Satellite Maps
  • Weather Map
  • Weather Widgets
  • user-avatar
    Login

    Hourly Weather Kalgoorlie

    Today, 16 January, Tuesday

    Time Temperature Precipitation Wind Pressure Humidity
    00:00 +23°C° 0 mm 5 mps 729 mmHg 52%
    01:00 +22°C° 0 mm 5 mps 728 mmHg 54%
    02:00 +22°C° 0 mm 5 mps 728 mmHg 55%
    03:00 +22°C° 0 mm 5 mps 728 mmHg 57%
    04:00 +22°C° 0 mm 5 mps 728 mmHg 58%
    05:00 +21°C° 0 mm 5 mps 728 mmHg 59%
    06:00 +23°C° 0 mm 6 mps 728 mmHg 55%
    07:00 +24°C° 0 mm 7 mps 729 mmHg 51%
    08:00 +23°C° 0 mm 8 mps 729 mmHg 54%
    09:00 +26°C° 0 mm 8 mps 728 mmHg 47%
    10:00 +29°C° 0 mm 8 mps 728 mmHg 40%
    11:00 +32°C° 0 mm 8 mps 728 mmHg 33%
    12:00 +32°C° 0 mm 8 mps 728 mmHg 31%
    13:00 +33°C° 0 mm 8 mps 727 mmHg 30%
    14:00 +32°C° 0 mm 8 mps 726 mmHg 32%
    15:00 +32°C° 0.1 mm 7 mps 726 mmHg 33%
    16:00 +30°C° 0.1 mm 7 mps 726 mmHg 34%
    17:00 +30°C° 0.1 mm 6 mps 726 mmHg 36%
    18:00 +30°C° 0.1 mm 6 mps 726 mmHg 37%
    19:00 +29°C° 0.1 mm 6 mps 726 mmHg 37%
    20:00 +29°C° 0.1 mm 6 mps 726 mmHg 38%
    21:00 +29°C° 0 mm 6 mps 726 mmHg 40%
    22:00 +28°C° 0 mm 6 mps 725 mmHg 42%
    23:00 +28°C° 0 mm 6 mps 725 mmHg 44%

    Tomorrow, 17 January, Wednesday

    Time Temperature Precipitation Wind Pressure Humidity
    00:00 +28°C° 0 mm 5 mps 725 mmHg 45%
    01:00 +28°C° 0 mm 5 mps 725 mmHg 45%
    02:00 +28°C° 0 mm 5 mps 724 mmHg 45%
    03:00 +27°C° 0 mm 4 mps 724 mmHg 47%
    04:00 +27°C° 0 mm 4 mps 724 mmHg 49%
    05:00 +26°C° 0 mm 4 mps 724 mmHg 51%
    06:00 +28°C° 0 mm 4 mps 725 mmHg 46%
    07:00 +30°C° 0 mm 5 mps 725 mmHg 40%
    08:00 +33°C° 0 mm 6 mps 725 mmHg 34%
    09:00 +34°C° 0 mm 6 mps 725 mmHg 31%
    10:00 +35°C° 0 mm 7 mps 724 mmHg 27%
    11:00 +38°C° 0 mm 7 mps 724 mmHg 24%
    12:00 +38°C° 0 mm 7 mps 724 mmHg 23%
    13:00 +39°C° 0 mm 7 mps 723 mmHg 22%
    14:00 +39°C° 0 mm 7 mps 723 mmHg 22%
    15:00 +40°C° 0 mm 7 mps 722 mmHg 21%
    16:00 +40°C° 0 mm 6 mps 722 mmHg 20%
    17:00 +41°C° 0 mm 6 mps 722 mmHg 20%
    18:00 +40°C° 0.2 mm 5 mps 722 mmHg 22%
    19:00 +38°C° 0.2 mm 4 mps 722 mmHg 25%
    20:00 +37°C° 0.2 mm 4 mps 722 mmHg 27%
    21:00 +36°C° 0.3 mm 3 mps 722 mmHg 30%
    22:00 +35°C° 0.3 mm 3 mps 722 mmHg 34%
    23:00 +34°C° 0.3 mm 3 mps 723 mmHg 38%

    Day after tomorrow, 18 January, Thursday

    Time Temperature Precipitation Wind Pressure Humidity
    00:00 +33°C° 0.4 mm 4 mps 722 mmHg 43%
    01:00 +32°C° 0.4 mm 4 mps 722 mmHg 48%
    02:00 +30°C° 0.4 mm 5 mps 722 mmHg 53%
    03:00 +29°C° 0.2 mm 5 mps 722 mmHg 58%
    04:00 +28°C° 0.2 mm 5 mps 723 mmHg 62%
    05:00 +27°C° 0.2 mm 4 mps 723 mmHg 67%
    06:00 +28°C° 0 mm 5 mps 724 mmHg 65%
    07:00 +28°C° 0 mm 5 mps 724 mmHg 64%
    08:00 +29°C° 0 mm 6 mps 724 mmHg 62%
    09:00 +30°C° 0.1 mm 6 mps 725 mmHg 56%
    10:00 +33°C° 0.1 mm 6 mps 725 mmHg 51%
    11:00 +34°C° 0.1 mm 5 mps 725 mmHg 45%
    12:00 +35°C° 0 mm 5 mps 725 mmHg 43%
    13:00 +35°C° 0 mm 5 mps 724 mmHg 41%
    14:00 +36°C° 0 mm 5 mps 724 mmHg 40%
    15:00 +35°C° 0.1 mm 6 mps 724 mmHg 40%
    16:00 +35°C° 0.1 mm 7 mps 724 mmHg 41%
    17:00 +35°C° 0.1 mm 7 mps 724 mmHg 41%
    18:00 +33°C° 1.3 mm 8 mps 725 mmHg 45%
    19:00 +31°C° 1.3 mm 9 mps 726 mmHg 49%
    20:00 +28°C° 1.3 mm 9 mps 727 mmHg 53%
    21:00 +26°C° 0.9 mm 9 mps 727 mmHg 56%
    22:00 +24°C° 0.9 mm 9 mps 728 mmHg 59%
    23:00 +23°C° 0.9 mm 9 mps 728 mmHg 62%

    19 January, Friday

    Time Temperature Precipitation Wind Pressure Humidity
    00:00 +22°C° 0.3 mm 9 mps 728 mmHg 65%
    01:00 +21°C° 0.3 mm 9 mps 728 mmHg 67%
    02:00 +20°C° 0.3 mm 8 mps 728 mmHg 70%
    03:00 +20°C° 0 mm 8 mps 728 mmHg 71%
    04:00 +18°C° 0 mm 7 mps 728 mmHg 72%
    05:00 +18°C° 0 mm 7 mps 728 mmHg 73%
    06:00 +20°C° 0 mm 7 mps 729 mmHg 71%
    07:00 +20°C° 0 mm 7 mps 729 mmHg 70%
    08:00 +21°C° 0 mm 7 mps 729 mmHg 68%
    09:00 +23°C° 0 mm 7 mps 729 mmHg 61%
    10:00 +26°C° 0 mm 7 mps 729 mmHg 54%
    11:00 +28°C° 0 mm 7 mps 729 mmHg 47%
    12:00 +30°C° 0 mm 6 mps 729 mmHg 44%
    13:00 +32°C° 0 mm 6 mps 729 mmHg 40%
    14:00 +34°C° 0 mm 6 mps 728 mmHg 37%
    15:00 +34°C° 0.1 mm 6 mps 728 mmHg 36%
    16:00 +34°C° 0.1 mm 6 mps 728 mmHg 36%
    17:00 +34°C° 0.1 mm 7 mps 728 mmHg 36%
    18:00 +33°C° 0 mm 7 mps 728 mmHg 38%
    19:00 +32°C° 0 mm 8 mps 728 mmHg 41%
    20:00 +31°C° 0 mm 8 mps 729 mmHg 44%
    21:00 +28°C° 0 mm 8 mps 729 mmHg 48%
    22:00 +26°C° 0 mm 9 mps 729 mmHg 52%
    23:00 +24°C° 0 mm 9 mps 729 mmHg 56%

    20 January, Saturday

    Time Temperature Precipitation Wind Pressure Humidity
    00:00 +23°C° 0 mm 8 mps 729 mmHg 59%
    01:00 +22°C° 0 mm 8 mps 729 mmHg 62%
    02:00 +21°C° 0 mm 7 mps 729 mmHg 64%
    03:00 +21°C° 0 mm 7 mps 729 mmHg 65%
    04:00 +21°C° 0 mm 7 mps 729 mmHg 67%
    05:00 +20°C° 0 mm 7 mps 729 mmHg 68%
    06:00 +21°C° 0 mm 7 mps 729 mmHg 65%
    07:00 +22°C° 0 mm 7 mps 729 mmHg 62%
    08:00 +23°C° 0 mm 7 mps 730 mmHg 59%
    09:00 +26°C° 0 mm 7 mps 730 mmHg 53%
    10:00 +29°C° 0 mm 7 mps 729 mmHg 48%
    11:00 +32°C° 0 mm 7 mps 729 mmHg 42%
    12:00 +34°C° 0 mm 6 mps 729 mmHg 38%
    13:00 +35°C° 0 mm 6 mps 728 mmHg 35%
    14:00 +38°C° 0 mm 6 mps 727 mmHg 31%
    15:00 +39°C° 0 mm 5 mps 727 mmHg 30%
    16:00 +39°C° 0 mm 5 mps 727 mmHg 29%
    17:00 +40°C° 0 mm 5 mps 726 mmHg 28%
    18:00 +39°C° 0 mm 5 mps 727 mmHg 29%
    19:00 +37°C° 0 mm 5 mps 727 mmHg 31%
    20:00 +36°C° 0 mm 5 mps 727 mmHg 33%
    21:00 +35°C° 0 mm 7 mps 727 mmHg 34%
    22:00 +35°C° 0 mm 8 mps 727 mmHg 35%
    23:00 +34°C° 0 mm 9 mps 727 mmHg 37%

    21 January, Sunday

    Time Temperature Precipitation Wind Pressure Humidity
    00:00 +33°C° 0 mm 9 mps 726 mmHg 39%
    01:00 +32°C° 0 mm 8 mps 726 mmHg 41%
    02:00 +31°C° 0 mm 8 mps 726 mmHg 44%
    03:00 +30°C° 0.3 mm 6 mps 726 mmHg 47%
    04:00 +29°C° 0.3 mm 4 mps 727 mmHg 51%
    05:00 +29°C° 0.3 mm 3 mps 727 mmHg 54%
    06:00 +29°C° 0.3 mm 3 mps 728 mmHg 54%
    07:00 +29°C° 0.3 mm 3 mps 728 mmHg 54%
    08:00 +29°C° 0.3 mm 3 mps 728 mmHg 54%
    09:00 +31°C° 0.1 mm 3 mps 728 mmHg 48%
    10:00 +34°C° 0.1 mm 4 mps 728 mmHg 43%
    11:00 +36°C° 0.1 mm 4 mps 727 mmHg 37%
    12:00 +37°C° 0 mm 4 mps 727 mmHg 34%
    13:00 +38°C° 0 mm 4 mps 726 mmHg 30%
    14:00 +41°C° 0 mm 4 mps 726 mmHg 27%
    15:00 +40°C° 0 mm 3 mps 726 mmHg 26%
    16:00 +40°C° 0 mm 2 mps 726 mmHg 26%
    17:00 +40°C° 0 mm 2 mps 726 mmHg 25%
    18:00 +39°C° 0 mm 2 mps 726 mmHg 29%
    19:00 +38°C° 0 mm 3 mps 726 mmHg 32%
    20:00 +37°C° 0 mm 4 mps 726 mmHg 36%
    21:00 +36°C° 0.2 mm 5 mps 727 mmHg 39%
    22:00 +35°C° 0.2 mm 6 mps 727 mmHg 41%
    23:00 +34°C° 0.2 mm 7 mps 727 mmHg 44%
    Show more